Tracking 25744 objects as of 25-Jun-2022
HD Live streaming from Space Station
objects crossing your sky now

THOR ABLESTAR DEB

Track THOR ABLESTAR DEB now!
10-day predictions


NORAD ID: 3164
Int'l Code: 1961-015HZ
Perigee: 861.7 km
Apogee: 938.9 km
Inclination: 66.7 °
Period: 102.8 minutes
Semi major axis: 7271 km
RCS: 0.0289 m2 (small)
Launch date: June 29, 1961
Source: United States (US)
Launch site: AIR FORCE EASTERN TEST RANGE (AFETR)

Note: This is SATELLITE DEBRIS
aabbcc
Your satellite tracking list
Your tracking list is empty




NASA's NSSDC Master Catalog

Two Line Element Set (TLE):
1 03164U 61015HZ  22175.24335807  .00000549  00000-0  42028-3 0  9993
2 03164  66.7490 115.6090 0053084 338.1850  21.6972 14.00180018883962
Source of the keplerian elements: AFSPC